Regional Weather Roundup
Issued by NWS Sterling, VA

Home | Current Version | Previous Version | Graphics & Text | Print | Product List | Glossary On
Versions: 1 2 3 4 5 6 7 8 9 10 11 12 13 14 15 16 17 18 19 20 21 22 23 24 25 26 27
000
ASUS41 KLWX 300511
RWRLWX

REGIONAL WEATHER ROUNDUP
NATIONAL WEATHER SERVICE BALTIMORE MD/WASHINGTON DC
100 AM EDT FRI SEP 30 2016

Note: "FAIR" indicates few or no clouds below 12,000 feet
with no significant weather and/or obstructions to visibility.
 TC=TEMPERATURE CELSIUS

 * =Non NWS site. Station does not report precipitation (e.g. rain,
    snow, etc.), thunder, or fog.

DCZ001-MDZ009-015-VAZ040>042-051-053>054-300600-
WASHINGTON METRO

CITY           SKY/WX    TMP DP  RH WIND       PRES   REMARKS
WASHINGTON NAT LGT RAIN  65  64  97 NE17G25   30.14F
DULLES         LGT RAIN  62  60  93 E15       30.13F
ANDREWS AFB    DRIZZLE   63  61  94 NE15G21   30.12F
FT BELVOIR     LGT RAIN  64  61  88 VRB3      30.11F
QUANTICO       RAIN      66  64  94 NE9       30.13F FOG
COLLEGE PARK*  CLOUDY    61  59  94 NE12      30.15F
LEESBURG*      RAIN      63  63 100 NE7       30.16F
MANASSAS*      CLOUDY    64  64 100 NE6       30.13F
GAITHERSBURG*  CLOUDY    61  57  88 E6        30.20F

$$

MDZ006>007-011-014-300600-
BALTIMORE METRO

CITY           SKY/WX    TMP DP  RH WIND       PRES   REMARKS
BWI AIRPORT    LGT RAIN  62  60  93 E21       30.17F
MD SCIENCE CTR   N/A     63  58  83 MISG      30.18F
ANNAPOLIS      LGT RAIN  65  62  90 NE13G24   30.14F FOG

$$

MDZ012-015-019>023-300600-
MARYLAND EASTERN SHORE

CITY           SKY/WX    TMP DP  RH WIND       PRES   REMARKS
OCEAN CITY     CLOUDY   N/A N/A N/A E25G37    30.05F
SALISBURY      RAIN      69  68  96 NE16      30.06F FOG
BAY BRIDGE AP* RAIN      63  61  94 MISG      30.14F FOG
CAMBRIDGE*     CLOUDY    64  63  94 NE10G16   30.10F

$$

MDZ017>025-300600-
SOUTHERN MARYLAND

CITY           SKY/WX    TMP DP  RH WIND       PRES   REMARKS
PATUXENT RIVER CLOUDY    67  65  93 E12G23    30.08F
ST INIGOES     LGT RAIN  69  67  93 NE14G21   30.07F
LEONARDTOWN*   CLOUDY    64  63  94 NE7       30.11F

$$

MDZ003>005-300600-
NORTH CENTRAL MARYLAND

CITY           SKY/WX    TMP DP  RH WIND       PRES   REMARKS
FREDERICK*     NOT AVBL
HAGERSTOWN APT LGT RAIN  61  57  87 NE10      30.18F

$$

MDZ501>502-300600-
WESTERN MARYLAND

CITY           SKY/WX    TMP DP  RH WIND       PRES   REMARKS
OAKLAND*       CLOUDY    52  52 100 E15G26    30.17S FOG
CUMBERLAND*    CLOUDY    59  59 100 N5        30.22S

$$

VAZ025>031-300600-
SHENANDOAH VALLEY

CITY           SKY/WX    TMP DP  RH WIND       PRES   REMARKS
WINCHESTER*    LGT RAIN  61  61 100 NE5       30.16F
FRONT ROYAL*   CLOUDY    61  61 100 NE7       30.14F
LURAY*         DRIZZLE  N/A N/A N/A NE5       30.13S
NEW MARKET*    CLOUDY   N/A N/A N/A N12G18    30.11F
STAUNTON*      LGT RAIN  63  62  94 E8        30.11F
WAYNESBORO*    CLOUDY    63  62  96 E8        30.10F

$$

WVZ021-048>050-054>055-300600-
EASTERN WEST VIRGINIA PANHANDLE

CITY           SKY/WX    TMP DP  RH WIND       PRES   REMARKS
MARTINSBURG    LGT RAIN  60  58  92 N7        30.17F FOG
PETERSBURG*    RAIN      65  61  87 CALM      30.12S

$$

VAZ036>039-050-300600-
CENTRAL FOOTHILLS

CITY           SKY/WX    TMP DP  RH WIND       PRES   REMARKS
CHARLOTTESVILL CLOUDY    67  64  90 NE12      30.09F
CULPEPER*      DRIZZLE   65  64  99 NE5       30.13F
ORANGE*        DRIZZLE   64  64 100 N5        30.12F
GORDONSVILLE*  CLOUDY    64  64 100 NE9       30.09
WARRENTON*     CLOUDY    64  60  85 NE5       30.13S

$$

VAZ055>057-300600-
NORTH AND CENTRAL PIEDMONT

CITY           SKY/WX    TMP DP  RH WIND       PRES   REMARKS
FREDERICKSBRG* DRIZZLE   66  66 100 NE7       30.09F
STAFFORD*      DRIZZLE   64  64 100 NE8       30.15F

$$

NCZ024-NYZ072-PAZ021-071-VAZ022-071-300600-
OTHER REGIONAL OBSERVATIONS

CITY           SKY/WX    TMP DP  RH WIND       PRES   REMARKS
NEW YORK CITY  CLOUDY    58  50  75 E9        30.38S
PHILADELPHIA   RAIN      60  57  89 NE20G25   30.22F FOG
PITTSBURGH     RAIN      58  58 100 E14       30.15F FOG
ROANOKE        CLOUDY    67  65  93 CALM      30.05S
RICHMOND       CLOUDY    68  67  96 NE7       30.05F FOG
RALEIGH        CLOUDY    73  70  90 SE7       30.01F

$$

ANZ530>537-300600-
MARINE OBSERVATIONS

STATION/POSITION TIME  TEMP    WIND        PRES
                       AIR SEA DIR/SP/G
                 (UTC) (F)     (DEG/KT/KT) (MB)
THOMAS PT LIGHT  0500   63 72   60/ 22/ 24 1021.1F
BALT KEY BRIDGE  0448   63      50/ 20/ 24 1021.2F
COVE POINT       0448   67      90/ 20/ 26 1019.3F
LEWISETTA        0448   70 72   70/ 17/ 22 1017.5F
SOLOMONS ISLAND  0448   68 74   60/ 15/ 21   N/A
PINEY POINT      0448           80/ 11/ 14   N/A

$$





USA.gov is the U.S. government's official web portal to all federal, state and local government web resources and services.